Regional Weather Roundup
Issued by NWS

Home | Current Version | Previous Version | Text Only | Print | Product List | Glossary Off
Versions: 1 2 3 4 5 6 7 8 9 10 11 12 13 14 15 16 17 18 19 20 21 22 23 24 25 26 27 28 29 30 31 32 33 34 35 36 37 38 39 40 41 42 43 44 45 46 47 48 49 50

534
ASUS43 KLOT 120808
RWRIL

ILLINOIS REGIONAL WEATHER ROUNDUP
NATIONAL WEATHER SERVICE CHICAGO/ROMEOVILLE IL
200 AM CST FRI FEB 12 2016

NOTE: "FAIR" INDICATES FEW OR NO CLOUDS BELOW 12,000 FEET WITH NO
SIGNIFICANT WEATHER AND/OR OBSTRUCTIONS TO VISIBILITY.

* THESE STATIONS ARE NOT UNDER NWS QUALITY CONTROL. THEY ALSO MAY NOT
  REPORT WEATHER SUCH AS PRECIPITATION OR FOG.

ILZ001-002-007-009-015-016-024-120900-
NORTHWEST ILLINOIS

CITY           SKY/WX    TMP DP  RH WIND       PRES   REMARKS
MOLINE         CLOUDY    21  13  71 W6        30.22F WCI  13
STERLING*      MOCLDY    16   9  73 CALM      30.18F
SAVANNA*       CLEAR     15  11  85 CALM      30.21S
$$

ILZ003-004-008-010-011-017-018-120900-
NORTH CENTRAL ILLINOIS

CITY           SKY/WX    TMP DP  RH WIND       PRES   REMARKS
ROCKFORD       CLOUDY    17   6  62 SW3       30.20F
FREEPORT*      MOCLDY    15   8  73 W5        30.20S WCI   8
ROCHELLE*      MOCLDY    18  12  77 SW5       30.20F WCI  11
DE KALB*       CLOUDY    18   8  63 SW6       30.18F WCI  10
$$

ILZ005-006-012>014-019>023-120900-
NORTHEAST ILLINOIS

CITY           SKY/WX    TMP DP  RH WIND       PRES   REMARKS
CHICAGO-OHARE  CLOUDY    19   7  59 SW9       30.18F WCI   8
CHICAGO-MIDWAY CLOUDY    20   7  57 W6        30.20F WCI  12
AURORA         CLOUDY    19   9  65 W5        30.20F WCI  12
LANSING*       CLOUDY    17  10  73 CALM      30.21F
JOLIET*        CLOUDY    20  12  71 CALM      30.21F
WAUKEGAN       CLOUDY    18   6  59 W6        30.15F WCI  10
DUPAGE AIRPORT CLOUDY    19   7  59 SW8       30.18F WCI   9
KANKAKEE*      CLOUDY    19  11  71 SW5       30.22F WCI  12
WHEELING       CLOUDY    19   6  57 SW7       30.19F WCI  10
MORRIS*        CLOUDY    19  13  76 CALM      30.19F
ROMEOVILLE*    CLOUDY    19  10  69 SW5       30.20F WCI  12
NORTHERLY ISL    N/A     21   6  52 W7          N/A  WCI  13
$$

LMZ740>746-120900-
SOUTHERN LAKE MICHIGAN

STATION/POSITION SKY/WX   TEMP    WIND        PRES    VSBY  WAVE
                          AIR SEA DIR/SP/G                  HT/PER
                          (F)     (DEG/KT/KT) (MB)    (MI)  (FT/S)
HARRISON CRIB              22     260/ 10/ 12   N/A
BURNHAM HARBOR             21     280/  4/  9   N/A
CALUMET HARBOR             19     220/  4/  6 1022.6F
BURNS HARBOR               19     220/  7/  9 1023.7F
MICHIGAN CITY              18     190/ 12/ 14   N/A
$$

ILZ025>027-034>036-040-047-049-050-058-095>099-120900-
WEST-CENTRAL ILLINOIS

CITY           SKY/WX    TMP DP  RH WIND       PRES   REMARKS
QUINCY         LGT SNOW  20  17  88 CALM      30.22F FOG
GALESBURG*     FLURRIES  20  17  90 W3        30.22F
MACOMB*        FLURRIES  22  20  93 W3        30.25S
JACKSONVILLE*  LGT SNOW  24  19  81 CALM      30.23F
PITTSFIELD*    LGT SNOW  22  19  89 NE3       30.23F
$$

ILZ028>032-037-038-041>044-048-051>054-059>061-120900-
CENTRAL ILLINOIS

CITY           SKY/WX    TMP DP  RH WIND       PRES   REMARKS
PONTIAC        CLOUDY    23  16  73 SW6       30.22F WCI  16
BLOOMINGTON    FLURRIES  21  16  81 SW5       30.21F WCI  15
DECATUR        CLOUDY    24  12  60 CALM      30.22F
PEORIA         FLURRIES  23  13  65 W3        30.23F
LACON*         FLURRIES  22  12  65 W3        30.21F
LINCOLN*       LGT SNOW  23  20  88 CALM      30.23F
SPRINGFIELD    LGT SNOW  23  20  88 SW3       30.24S FOG
TAYLORVILLE    LGT SNOW  23  19  86 CALM      30.24S
$$

ILZ033-039-045-046-055>057-062-063-120900-
EAST-CENTRAL ILLINOIS

CITY           SKY/WX    TMP DP  RH WIND       PRES   REMARKS
CHAMPAIGN      CLOUDY    22  13  68 CALM      30.21F
RANTOUL*       CLOUDY    22  12  64 CALM      30.21F
MATTOON        CLOUDY    21  13  71 E3        30.20F
PARIS*         CLOUDY    21  15  80 CALM      30.23F
$$

ILZ079-100>102-120900-
SOUTHWEST ILLINOIS

CITY           SKY/WX    TMP DP  RH WIND       PRES   REMARKS
ALTON          CLOUDY    26  17  69 CALM      30.23S
BELLEVILLE     MOCLDY    25  22  91 E1        30.21F
CAHOKIA*       FLURRIES  26  19  74 E5        30.23S WCI  20
SPARTA*        CLOUDY    27  18  70 SE3       30.22F
$$

ILZ064>066-069>071-074>076-080>082-084>086-088>090-092>094-120900-
SOUTH-CENTRAL ILLINOIS

CITY           SKY/WX    TMP DP  RH WIND       PRES   REMARKS
CARBONDALE     LGT SNOW  25  22  88 E5        30.22F VSB 1   WCI  19
CAIRO*         CLOUDY    31  23  71 E7        30.20F WCI  24
EFFINGHAM*     CLOUDY    25  16  68 CALM      30.24S
MARION         LGT SNOW  28  23  80 CALM      30.24S
MT. VERNON     CLOUDY    27  12  54 CALM      30.23S
CENTRALIA*     CLOUDY    27  18  67 CALM      30.23R
SALEM*         CLOUDY    28  15  58 CALM      30.23R
METROPOLIS*    LGT SNOW  29  23  77 CALM      30.23F
$$

ILZ067-068-072-073-078-083-087-091-120900-
SOUTHEAST ILLINOIS

CITY           SKY/WX    TMP DP  RH WIND       PRES   REMARKS
LAWRENCEVILLE  CLOUDY    24  13  62 NE6       30.23F WCI  17
FLORA*         CLOUDY    27  15  60 CALM      30.23F
FAIRFIELD*     CLOUDY    27  16  63 NE3       30.22F
HARRISBURG*    CLOUDY    29  17  60 CALM      30.24S
ROBINSON*      PTCLDY    22  13  69 CALM      30.24F
CARMI*         CLOUDY    29  18  65 E5        30.22F WCI  24
$$

ABBREVIATIONS USED IN REMARKS
   TC - TEMPERATURE IN CELSIUS
  WCI - WIND CHILL INDEX
   HX - HEAT INDEX
  VSB - VISIBILITY
$$





USA.gov is the U.S. government's official web portal to all federal, state and local government web resources and services.